CW4480 Weather Reports


time (UTC)temp
C
wind
direction
speed
KPH
gust
KPH
rain 1hr
cm
rain 24hr
cm
rain mn
cm
humidity
%
barometer
mb
20260504203046 26 179 14.5 30.6 0.00 0.28 0.28 41 999.1
20260504200040 26 192 12.9 33.8 0.00 0.28 0.28 43 999.5
20260504193034 25 187 8.0 25.7 0.00 0.28 0.28 45 999.7
20260504190028 24 205 3.2 6.4 0.00 0.28 0.28 58 1000.1
20260504183040 22 276 3.2 8.0 0.03 0.28 0.28 59 1000.8
20260504180054 20 167 1.6 19.3 0.03 0.28 0.28 69 999.7
20260504173045 20 167 6.4 16.1 0.00 0.25 0.25 67 1000.9
20260504070106 11 325 0.0 0.0 0.00 0.00 0.00 95 1004.4
20260504043034 13 325 0.0 0.0 0.00 0.00 0.00 86 1005.4
20260504040028 15 325 0.0 0.0 0.00 0.00 0.00 82 1005.4
20260504033107 15 325 0.0 0.0 0.00 0.00 0.00 79 1005.8
20260504030055 16 325 0.0 0.0 0.00 0.00 0.00 75 1005.7
20260504023029 17 325 0.0 0.0 0.00 0.00 0.00 72 1005.4
20260504020043 18 325 0.0 0.0 0.00 0.00 0.00 64 1005.3
20260504013102 20 325 0.0 0.0 0.00 0.00 0.00 56 1005.3
20260504010036 23 325 0.0 0.0 0.00 0.00 0.00 46 1005.1
20260504003030 25 325 0.0 6.4 0.00 0.00 0.00 37 1005.2
20260504000044 25 346 3.2 9.7 0.00 0.00 0.00 36 1005.2
20260503233036 25 198 4.8 14.5 0.00 0.00 0.00 33 1004.9
20260503230030 25 167 6.4 16.1 0.00 0.00 0.00 33 1005.2
20260503223041 26 196 3.2 20.9 0.00 0.00 0.00 33 1005.4
20260503220035 26 190 12.9 25.7 0.00 0.00 0.00 30 1005.5
20260503213029 26 172 11.3 24.1 0.00 0.00 0.00 31 1005.7
20260503210043 25 178 19.3 25.7 0.00 0.00 0.00 31 1006.5